Погода в Буда-Кошелёво

Беларусь     52°43′00″N   30°34′04″E
темп.,
°C
ветер,
м/с
пор.,
м/с
влажн.,
%
обл.,
%
осадки,
мм/ч
давл.,
гПа
погр.,
м
6 мая, чт
чт600:00+11ю61477100 0.1 1003334
03:00+11ю8158675 0.2 1002470
06:00+10ю81491100 0.3 1001647
09:00+9з91192100 1.6 1002981
12:00+7з498971 1.2 1005706
15:00+13зюз8115393 1.5 10072295
18:00+12з6125783 0.4 10081953
21:00+7зюз4106543 0.4 1010178
7 мая, пт
пт700:00+5юз337194 0.0 101138
03:00+4ю4107126 0.0 1012163
06:00+5ююз41173100 0.0 1012270
09:00+10ююз6106891 0.0 1011608
12:00+14ююз71054100 0.2 10101771
15:00+13ю81060100 0.4 10091482
18:00+9ююв71493100 4.6 10071066
21:00+10ю61293100 5.2 1006504
8 мая, сб
сб800:00+9ю4998100 1.7 1004283
03:00+9зюз41097100 2.8 1004325
06:00+7зюз61193100 0.0 1004608
09:00+4зюз91488100 0.1 10071124
12:00+5з101582100 0.1 10081279
15:00+7зсз101473100 0.3 10111308
18:00+8з7126898 0.1 10121498
21:00+5з512745 0.1 1014372
9 мая, вс
вс900:00+4з513885 0.0 1016421
03:00+2з411950 0.0 1018286
06:00+2зсз410963 0.0 1020268
09:00+7сз46630 0.0 1022623
12:00+11сз46445 0.0 10231703
15:00+12сз44415 0.0 10241792
18:00+12сз12435 0.0 10241407
21:00+7юв33555 0.0 102616
10 мая, пн
пн1000:00+6ююв346023 0.0 102758
03:00+4ю36665 0.0 102887
06:00+4ю37734 0.0 1028118
09:00+10ю45615 0.0 1029377
12:00+15ю44515 0.0 10281254
15:00+17ююв34454 0.0 10271642
18:00+16юв23520 0.0 10261451
21:00+10вюв46690 0.0 102673